Theta_e
308 308 308 307 307 306 306 306 306 305 305 304 304 304 303 302 301 299 298 297 296 295 295 295 294 294 294 295 295 295 295 295 294 294 294 293 293 293 292 291 291 291
309 308 308 308 307 307 306 306 306 305 305 304 304 303 302 301 300 299 298 297 296 295 295 294 294 294 294 294 294 294 294 294 294 294 294 293 293 292 292 291 290 290
309 308 309 309 308 308 307 306 305 305 305 304 303 303 302 300 300 299 298 297 296 295 294 294 294 294 294 294 294 294 294 294 294 293 293 293 292 292 291 291 290 290
310 310 309 309 309 308 307 305 305 305 305 304 304 303 302 300 299 298 297 296 296 295 294 294 293 293 293 293 294 294 294 294 293 293 293 292 292 292 291 290 290 290
310 310 309 309 308 307 306 306 305 305 305 305 304 303 302 300 299 298 297 296 295 295 294 293 293 293 293 293 293 293 293 293 293 293 292 292 292 291 290 290 290 289
310 309 309 308 308 307 306 307 306 304 304 304 303 302 302 301 299 298 297 296 295 294 294 293 293 292 292 292 293 293 293 293 293 292 292 291 291 290 290 290 290 289
311 310 309 308 307 307 307 306 306 304 304 303 303 302 301 300 299 298 297 296 295 294 293 293 293 292 292 292 292 292 293 292 292 292 291 291 290 290 290 290 289 289
311 310 309 308 307 307 307 306 305 305 304 303 303 303 301 300 299 298 297 296 295 294 293 293 292 292 292 292 292 292 292 292 292 291 291 291 290 290 290 289 289 289
310 309 309 308 307 307 307 307 306 304 304 303 303 303 301 300 298 297 296 295 295 294 293 293 292 292 292 292 292 292 292 292 291 291 291 290 290 290 289 289 289 288
309 309 309 308 308 308 307 307 305 304 303 303 302 302 301 300 298 296 295 295 294 294 293 292 292 292 291 291 291 291 291 291 291 291 290 290 290 289 289 289 288 288
309 309 309 308 308 308 307 306 305 304 303 302 301 301 301 299 298 296 295 295 294 294 293 292 292 291 291 291 291 291 291 291 290 290 290 289 289 289 289 288 288 288
309 309 309 309 308 308 307 306 305 304 303 302 302 301 300 299 298 297 296 295 294 294 293 292 291 291 290 290 290 290 290 290 290 290 289 289 289 289 289 288 288 287
309 309 309 309 308 307 307 305 304 304 303 302 302 301 300 299 298 297 296 295 294 293 293 292 291 290 290 290 290 290 290 290 290 289 289 289 289 289 288 288 287 287
309 309 309 308 308 307 306 305 304 303 303 302 301 300 300 299 298 297 296 294 294 293 292 291 291 290 289 289 289 289 289 289 289 289 288 288 288 288 288 287 287 287
309 309 308 308 307 306 305 305 304 303 302 301 300 300 299 299 298 296 295 294 294 293 292 291 290 289 289 289 289 289 289 289 289 288 288 288 288 288 287 287 287 286
309 308 307 307 306 306 305 304 303 302 301 300 300 299 298 298 297 296 295 294 293 293 292 291 290 289 289 288 288 288 289 288 288 288 287 288 288 287 287 287 287 286
308 308 307 307 306 305 304 303 303 302 301 300 299 299 298 297 296 295 295 294 293 292 292 291 290 289 288 288 288 288 288 288 288 288 288 288 287 287 287 287 286 286
308 307 307 306 306 305 304 303 302 301 300 299 299 298 298 297 296 295 294 293 293 292 291 290 289 289 288 288 288 288 288 288 288 288 288 287 287 287 287 287 287 288
308 307 307 306 305 304 303 302 301 300 299 299 298 298 297 296 295 294 294 293 292 292 291 290 289 289 288 288 288 288 288 288 288 288 287 287 287 287 287 288 289 289
307 307 306 305 304 303 302 301 300 300 299 299 298 297 297 296 295 294 293 293 292 292 291 290 289 288 287 287 287 287 287 287 287 287 287 287 287 287 289 290 289 287
307 306 305 305 304 303 302 301 300 300 299 299 298 297 297 296 295 294 293 293 292 291 291 290 289 288 287 286 286 286 286 286 286 286 286 286 287 289 289 289 287 286
307 307 306 305 304 303 302 301 301 300 299 299 298 297 296 295 295 294 293 292 292 291 290 290 289 287 286 286 285 285 285 286 286 286 286 287 288 289 289 287 286 285
307 307 306 305 304 304 303 302 301 300 299 299 298 297 296 295 294 293 292 292 291 291 290 290 288 287 285 285 285 285 285 285 285 285 286 288 289 288 287 286 285 284
304 305 305 305 305 305 304 302 301 300 299 299 298 297 296 295 294 293 292 291 291 291 290 289 288 286 285 285 285 285 285 285 285 286 287 288 288 287 286 285 284 283
302 302 302 303 303 303 302 301 300 299 299 298 297 295 295 294 293 292 291 291 291 290 290 288 287 285 285 285 285 284 284 284 285 286 287 287 287 286 285 284 283 283
301 301 301 300 300 300 299 298 298 297 297 296 295 294 293 292 291 291 291 291 290 290 289 287 286 285 284 284 284 284 284 284 286 287 287 286 285 284 284 283 283 282
Wind_Speed
42 43 43 43 43 42 42 40 39 38 38 37 37 37 37 38 38 39 40 41 42 42 41 40 39 37 36 35 33 32 30 28 27 25 25 23 23 24 25 25 25 25
43 44 44 43 43 43 43 43 41 40 38 37 36 36 37 37 37 37 38 39 41 41 41 41 39 38 37 36 34 33 31 29 28 26 25 24 24 25 25 26 25 26
44 45 45 44 44 44 45 45 44 42 40 39 37 36 37 37 36 36 37 38 39 41 41 41 40 39 38 37 35 33 31 30 29 27 26 25 26 26 26 26 26 26
45 45 45 45 45 46 47 48 47 45 43 41 38 37 37 37 36 36 36 38 39 40 41 41 41 40 39 38 36 34 32 31 30 28 27 27 27 27 26 26 27 26
46 46 46 46 47 48 49 50 49 47 46 43 41 39 38 38 37 36 36 37 38 40 41 42 41 41 40 38 36 35 33 32 31 29 29 28 28 27 27 27 27 26
48 48 48 47 47 48 49 50 50 50 48 46 44 42 40 39 38 37 36 37 38 39 40 41 42 41 40 38 37 36 34 33 31 30 30 29 28 27 27 28 27 26
49 49 49 49 48 48 49 50 51 51 50 48 46 44 42 40 39 37 36 37 37 39 40 41 42 42 41 39 38 37 35 33 32 31 30 29 28 27 28 28 28 27
50 50 50 50 49 49 49 49 51 51 50 50 48 45 44 42 40 38 37 37 38 39 40 41 42 42 41 40 39 38 36 34 33 32 30 29 28 28 28 28 28 28
50 51 50 50 49 48 47 48 49 50 50 51 48 46 45 43 41 39 38 38 38 39 41 41 42 42 42 41 39 38 36 34 33 32 31 30 29 28 28 28 28 28
48 50 50 49 48 47 46 47 48 49 50 50 49 47 46 44 41 40 39 39 39 40 41 42 43 43 42 41 40 38 36 35 33 32 31 30 29 29 28 28 28 28
45 48 49 48 48 47 46 46 47 47 48 49 49 48 47 45 42 40 40 40 41 41 42 42 43 43 42 42 40 38 36 34 33 33 32 31 30 29 28 28 28 27
44 46 47 47 47 46 46 46 46 46 47 48 48 47 47 45 43 41 41 41 41 41 42 42 42 43 43 41 40 38 36 35 35 34 32 31 30 29 28 28 27 27
43 43 44 45 45 45 46 46 46 45 45 47 48 47 47 46 43 42 41 41 41 41 41 42 42 43 42 41 40 38 37 36 35 34 33 31 30 29 28 28 27 26
43 42 43 44 44 45 46 46 45 45 45 46 47 47 46 45 43 41 40 41 41 41 41 42 42 43 43 42 40 39 38 37 36 34 33 31 30 29 28 27 26 26
44 42 43 44 45 46 46 46 45 44 45 46 47 46 45 44 43 41 40 41 42 42 42 42 43 44 44 43 41 40 39 37 36 34 33 31 29 28 27 26 26 26
44 43 43 44 45 45 45 46 45 45 45 45 45 45 44 44 43 42 41 41 42 42 43 43 45 45 44 43 41 40 38 37 36 34 32 30 29 27 26 26 25 25
44 43 43 44 45 45 45 45 45 44 44 44 44 44 44 44 44 43 42 42 42 43 43 45 46 45 44 43 41 40 39 38 36 34 32 31 29 27 26 25 24 24
42 42 43 44 44 44 45 44 44 44 44 44 44 44 44 44 44 43 43 43 43 44 45 45 45 44 44 43 43 42 41 39 37 35 33 31 29 27 25 23 23 24
42 42 42 42 43 43 44 43 43 43 43 43 43 43 44 44 44 43 43 44 45 45 46 45 44 44 44 44 44 43 42 40 38 36 34 31 28 26 24 23 24 26
41 41 41 41 41 42 43 43 43 42 42 42 43 42 43 44 43 44 44 44 45 45 44 44 43 43 44 44 44 43 41 40 37 35 32 29 27 25 24 24 25 27
39 39 39 39 40 41 42 42 42 42 42 42 42 42 43 42 43 43 43 44 44 43 43 43 42 42 43 43 43 41 40 38 35 32 30 28 26 25 24 24 25 27
37 37 38 39 39 40 41 42 42 42 42 42 42 42 42 42 43 43 43 43 43 42 43 43 42 42 43 43 42 39 37 36 34 31 29 27 26 24 23 24 25 27
36 37 38 38 39 39 41 42 42 42 42 41 41 42 43 43 43 43 42 42 42 41 42 42 42 43 44 43 40 37 36 35 32 30 28 27 25 23 23 24 25 26
37 38 38 38 38 39 40 41 41 42 41 41 41 42 41 42 42 42 42 41 40 40 40 40 42 43 44 42 38 36 35 34 31 29 27 25 24 23 23 24 25 25
37 38 39 39 39 40 40 41 41 41 41 40 40 40 40 40 41 41 42 41 40 39 39 40 42 43 44 41 37 36 35 32 30 28 26 24 23 23 23 24 25 24
35 37 38 39 40 40 40 41 42 41 41 40 40 39 39 40 40 41 41 39 38 38 39 40 42 43 43 40 37 35 34 32 29 27 25 23 23 23 23 25 25 23
Wind_Direction
236 237 237 238 239 239 240 241 243 246 249 250 251 253 253 251 248 244 242 240 239 239 238 238 238 237 238 238 239 240 241 243 246 249 252 256 262 266 268 271 275 280
236 237 237 238 239 238 239 240 242 245 247 250 252 253 253 252 249 246 244 242 240 239 238 238 238 237 238 238 239 240 241 243 245 248 252 255 259 263 266 270 274 279
236 237 238 238 238 237 238 240 241 243 246 248 251 252 252 251 249 247 244 242 241 240 238 238 237 237 237 238 239 240 241 244 246 248 250 253 258 261 264 269 273 277
237 238 239 240 240 240 241 242 242 242 244 246 248 251 251 249 248 246 243 242 240 240 239 238 237 236 237 237 238 240 241 243 245 247 249 252 256 259 263 267 271 276
239 239 240 242 242 242 243 243 243 243 244 246 247 249 251 249 246 243 242 240 239 238 238 237 236 236 236 237 238 240 241 243 245 246 248 251 255 259 263 267 271 276
244 243 242 243 244 244 245 246 246 245 245 247 247 248 249 250 247 243 241 239 237 237 236 235 235 235 235 236 238 240 241 242 244 246 248 251 255 259 263 267 272 277
247 245 244 244 245 246 248 248 248 247 246 247 248 248 249 249 247 244 241 239 237 236 235 235 234 234 235 236 237 239 241 242 244 246 249 251 254 259 263 267 272 277
250 248 246 245 246 247 249 251 251 249 248 247 248 249 249 248 247 244 241 239 237 236 235 235 235 235 236 237 238 239 241 242 244 247 249 251 255 259 263 268 272 276
253 249 248 247 247 248 251 253 253 251 249 248 248 249 249 248 247 244 241 239 238 236 235 235 235 235 236 237 238 240 241 243 245 247 250 252 255 258 262 267 271 275
255 251 248 248 248 249 252 254 254 252 250 249 248 248 249 248 246 243 240 239 238 237 236 235 235 235 235 236 237 239 241 243 245 248 250 252 255 258 262 267 270 275
257 252 249 249 249 250 252 254 254 253 252 249 248 248 247 246 245 242 239 238 238 237 236 236 235 235 235 236 237 239 241 243 245 248 249 252 255 258 262 266 271 275
257 253 251 251 251 251 251 253 253 253 252 249 248 247 247 245 244 242 240 238 237 237 237 236 236 235 234 235 237 239 241 243 245 246 249 251 254 258 262 267 271 275
256 256 254 252 251 251 250 251 252 252 252 250 248 247 246 244 243 242 240 238 238 237 236 236 235 234 234 235 237 239 241 242 244 246 248 251 254 258 262 266 271 273
257 257 254 251 251 250 249 250 251 251 251 249 246 245 245 244 243 242 240 238 237 237 236 236 235 234 234 234 236 237 239 241 244 245 248 251 254 257 261 265 270 273
257 256 253 250 249 248 247 248 249 249 248 247 245 245 244 243 242 241 240 238 236 236 235 234 234 233 233 233 235 237 239 242 243 245 247 250 253 257 261 266 270 274
256 254 252 249 248 247 247 247 247 246 246 245 244 244 243 242 240 239 238 237 236 236 235 233 233 232 232 233 235 237 240 241 242 243 246 249 253 257 261 266 271 275
255 254 252 251 250 248 247 246 245 245 244 243 242 242 241 240 239 238 237 236 235 235 235 234 233 231 231 232 234 236 238 240 242 244 247 249 253 256 260 265 271 276
256 254 253 252 250 249 247 245 244 243 242 241 240 240 239 238 237 237 236 235 235 235 234 234 233 232 231 232 234 236 238 240 242 243 246 248 251 255 260 266 272 278
255 253 251 251 250 248 246 244 243 242 241 240 240 239 238 237 237 237 236 235 234 234 234 233 233 232 232 233 234 236 237 239 240 242 244 247 249 254 260 267 273 278
254 252 250 249 248 247 245 243 242 241 241 240 239 238 237 237 237 236 235 234 234 234 234 234 233 231 232 233 234 235 237 238 239 241 243 245 248 253 260 266 272 277
253 251 249 248 247 245 244 243 242 241 241 241 240 239 239 238 238 237 235 234 234 234 234 234 233 231 231 232 233 234 236 238 239 241 242 244 249 255 262 269 274 276
252 250 248 247 246 245 244 243 243 242 241 240 239 238 238 237 237 236 235 234 233 233 234 234 233 231 230 231 232 233 236 239 241 242 243 247 253 259 264 271 275 275
252 249 249 248 247 246 245 244 243 242 240 239 238 236 236 235 235 234 233 233 233 233 234 233 231 230 229 230 232 233 236 239 241 242 245 251 257 261 267 272 274 275
253 251 251 251 249 248 246 244 242 241 240 239 238 237 236 235 234 233 232 232 233 233 234 233 231 229 229 230 232 233 236 238 240 243 248 254 260 264 270 273 274 275
258 255 253 252 250 249 246 243 242 240 239 238 237 236 235 234 233 232 231 231 232 232 232 232 229 227 227 229 230 232 235 236 239 245 250 256 262 267 271 274 274 276
267 261 257 255 252 249 246 243 241 240 239 237 235 233 232 232 232 232 232 232 231 230 230 229 226 225 226 227 229 230 233 236 239 245 251 256 262 267 271 273 275 279